sat.trackr.live / text

‹ back to catalog

STARLINK-3197

NORAD 49757 · 2021-115AK

PAYLOAD ACTIVE UNKNOWN

§ Identity

Operator
Country
US
Launch date
2021-12-02
Launch site
AFETR
Launch vehicle
Mass (kg)
RCS (m²)

Purposes: comms

External: N2YO · Heavens-Above · Gunter

§ Orbital elements

Epoch: 2026-05-25T01:19:53.910912Z

Period
95.44 min
Inclination
53.2130°
Eccentricity
0.0001278
Mean motion
15.08846748 rev/d
Perigee alt
538.8 km
Apogee alt
540.6 km
Semi-major
6,917.9 km
B*
-8.2492e-5
RAAN
156.3128°
Arg perigee
72.8003°
Mean anomaly
287.3128°
Rev number
24,720

§ Raw data

STARLINK-31971 49757U 21115AK  26145.05548508 -.00001601  00000+0 -82492-4 0  99932 49757  53.2130 156.3128 0001278  72.8003 287.3128 15.08846748247209

JSON: /api/v1/satellites/49757 · /tle

For live sub-satellite position, see the globe view (requires WebGL).

§ Visibility from observer

Set your observer location to see the next 7 days of passes ≥ 10°. The values pass through the URL so the page stays shareable.

No JS? Fill the form by hand. The geolocation button needs JavaScript.